Regional Weather Roundup
Issued by NWS

Home | Current Version | Previous Version | Graphics & Text | Print | Product List | Glossary On
Versions: 1 2 3 4 5 6 7 8 9 10 11 12 13 14 15 16 17 18 19 20 21 22 23 24 25 26 27 28 29 30 31 32 33 34 35 36 37 38 39 40 41 42 43 44 45 46 47 48 49 50
937
ASUS43 KOAX 100402
RWRNE

WEATHER ROUNDUP FOR NEBRASKA
NATIONAL WEATHER SERVICE OMAHA NE
1000 PM CST FRI DEC 09 2016

NOTES: SATELLITE DATA IS BEING USED TO AUGMENT CLOUD COVER ABOVE
       12000 FEET.
       "FAIR" INDICATES FEW OR NO CLOUDS BELOW 12,000 FEET WITH NO
       SIGNIFICANT WEATHER AND/OR OBSTRUCTIONS TO VISIBILITY.

  * THESE STATIONS DO NOT REPORT WEATHER SUCH AS RAIN...SNOW OR FOG.

NEZ001>004-019>022-054>056-100500-
NEBRASKA PANHANDLE

CITY           SKY/WX    TMP DP  RH WIND       PRES   REMARKS
SCOTTSBLUFF    CLOUDY    14   5  67 E10       30.18F WCI   1
ALLIANCE       CLOUDY     7   2  80 NE9       30.20F WCI  -7
CHADRON        CLOUDY     5  -1  76 NE10      30.27F WCI -10
KIMBALL        CLOUDY    20  17  85 S5        30.14R WCI  14
SIDNEY         CLOUDY    20  12  71 SE12      30.15F WCI   8
$$

NEZ057>060-069>072-079>082-100500-
SOUTHWEST NEBRASKA

CITY           SKY/WX    TMP DP  RH WIND       PRES   REMARKS
NORTH PLATTE   CLOUDY    14  10  84 E7        30.29F WCI   4
IMPERIAL       CLOUDY    19  13  77 SE5       30.24R WCI  12
LEXINGTON      CLOUDY    17  11  78 E6        30.33F WCI   8
MCCOOK         CLOUDY    14   9  80 NE7       30.29R WCI   4
OGALLALA       CLOUDY    21  17  82 E3        30.25S
$$

NEZ005>010-023>029-035>040-094-100500-
NORTH CENTRAL NEBRASKA

CITY           SKY/WX    TMP DP  RH WIND       PRES   REMARKS
VALENTINE      CLOUDY     6   1  80 N9        30.37F WCI  -8
AINSWORTH      CLOUDY    10   8  92 NE9       30.36F WCI  -4
BROKEN BOW     CLOUDY    16  11  80 SE3       30.33R
O`NEILL        FLURRIES  11   9  92 N6        30.43R WCI   1
ORD            CLOUDY    11   6  81 NE3       30.37R
THEDFORD       FLURRIES   9   7  89 NE3       30.31F
$$

NEZ041-046>049-061>064-073>077-083>087-100500-
SOUTH CENTRAL NEBRASKA

CITY           SKY/WX    TMP DP  RH WIND       PRES   REMARKS
GRAND ISLAND   CLOUDY    16  11  80 S6        30.40S WCI   7
AURORA         CLOUDY    17  11  79 S6        30.40S WCI   8
HASTINGS       CLOUDY    17  12  80 SE7       30.40R WCI   8
HEBRON         CLOUDY    17  12  83 CALM      30.43S
HOLDREGE       CLOUDY    14   9  82 E9        30.34S WCI   2
KEARNEY *      CLOUDY    12   7  79 SE6       30.38S WCI   3
YORK           CLOUDY    19  14  79 S6        30.42S WCI  11
$$

NEZ011>018-030>034-042>045-100500-
NORTHEAST NEBRASKA

CITY           SKY/WX    TMP DP  RH WIND       PRES   REMARKS
NORFOLK        CLOUDY    18  11  74 E5        30.43F WCI  11
ALBION         CLOUDY    15  10  80 E5        30.40S WCI   7
BLAIR          CLOUDY    22  13  69 SE5       30.46F WCI  16
FREMONT        CLOUDY    21  13  71 SE6       30.47F WCI  14
TEKAMAH        CLOUDY    20  11  68 NE3       30.49F
WAYNE          CLOUDY    18  12  75 CALM      30.46S
$$

NEZ050>053-065>068-078-088>093-100500-
SOUTHEAST NEBRASKA

CITY           SKY/WX    TMP DP  RH WIND       PRES   REMARKS
LINCOLN        CLOUDY    23  14  68 E6        30.47F WCI  16
OMAHA EPPLEY   CLOUDY    22  11  62 SE7       30.50F WCI  13
BEATRICE       CLOUDY    25  15  65 SE5       30.45S WCI  19
FALLS CITY     CLOUDY    25  14  63 E6        30.49F WCI  18
NEBRASKA CITY  CLOUDY    23  11  60 SE5       30.48F WCI  17
PLATTSMOUTH    CLOUDY    22  11  60 SE7       30.48F WCI  14
$$

NEZ044-045-051>053-067-100500-
OMAHA AREA

CITY           SKY/WX    TMP DP  RH WIND       PRES   REMARKS
OMAHA EPPLEY   CLOUDY    22  11  62 SE7       30.50F WCI  13
BLAIR          CLOUDY    22  13  69 SE5       30.46F WCI  16
FREMONT        CLOUDY    21  13  71 SE6       30.47F WCI  14
MILLARD        CLOUDY    24  14  66 SE5       30.49F WCI  18
OFFUTT AFB     CLOUDY    22  14  72 E6        30.49F WCI  14
PLATTSMOUTH    CLOUDY    22  11  60 SE7       30.48F WCI  14
WAHOO          CLOUDY    22  13  71 SE6       30.48S WCI  14
$$




USA.gov is the U.S. government's official web portal to all federal, state and local government web resources and services.